Location: *
(53.4003°S, 165.3236°W)
Time: 01:38:49
(UTC+00:00)

CZ-2D R/B - Pass Details

Date: 11 December 2023
Orbit: 790 x 844 km, 98.8° (Epoch: 24 February)

Event Time Altitude Azimuth Distance (km) Brightness Sun altitude
Exits shadow 13:20:37 - 315° (NW) 2,628 4.1 -7.3°
Reaches altitude 10° 13:21:10 10° 311° (NW) 2,482 4.0 -7.3°
Maximum altitude 13:24:56 19° 267° (W) 1,952 3.8 -6.9°
Drops below altitude 10° 13:28:43 10° 224° (SW) 2,491 4.8 -6.6°
Sets 13:31:53 0° 205° (SSW) 3,427 5.8 -6.4°
